Weather History for Carbondale, IL

Change the Weather History Date:

Thursday, January 9, 2014

  Actual Average Record
Temperature  
Mean Temperature 32 °F -  
Max Temperature 35 °F 36 °F 64 °F (1939)
Min Temperature 30 °F 18 °F -7 °F (1976)
Degree Days  
Heating Degree Days 32    
Moisture  
Dew Point 29 °F    
Average Humidity 88    
Maximum Humidity 92    
Minimum Humidity 70    
Precipitation  
Precipitation 0.03 in - - ()
Sea Level Pressure  
Sea Level Pressure 30.34 in    
Wind  
Wind Speed 4 mph (SE)    
Max Wind Speed 16 mph    
Max Gust Speed -    
Visibility 7 miles    
Events Rain , Snow    
Averages and records for this station are not official NWS values.
T = Trace of Precipitation, MM = Missing Value Source: NWS Daily Summary

Daily Weather History Graph

Daily Weather History Graph

Search for Another Location

Airport:

Trip Planner

Search our weather history database for the weather conditions in past years. The results will help you decide how hot, cold, wet, or windy it might be!

Date:

Astronomy

Jan. 09, 2014 Rise Set
Actual Time 7:12 AM CST 4:56 PM CST
Civil Twilight 6:43 AM CST 5:25 PM CST
Nautical Twilight 6:11 AM CST 5:57 PM CST
Astronomical Twilight 5:39 AM CST 6:29 PM CST
Moon 12:20 PM CST (1/9) 1:22 AM CST (1/9)
Length of Visible Light 10h 41m
Length of Day
9h 43m
Waxing Gibbous, 66% of the Moon is Illuminated
Jan 9
Waxing Gibbous
Jan 15
Full
Jan 23
Last Quarter
Jan 30
New
Feb 6
First Quarter

Hourly Weather History & Observations

Time (CST) Temp. Windchill Dew Point Humidity Pressure Visibility Wind Dir Wind Speed Gust Speed Precip Events Conditions
12:09 AM 30.0 °F - 28.0 °F 92% 30.45 in 2.5 mi Calm Calm - 0.00 in Snow Light Snow
12:33 AM 30.0 °F - 28.0 °F 92% 30.44 in 1.8 mi Calm Calm - 0.00 in Snow Light Snow
12:52 AM 30.0 °F 25.2 °F 27.0 °F 88% 30.44 in 1.5 mi NE 4.6 mph - 0.00 in Snow Light Snow
12:56 AM 30.0 °F 26.5 °F 28.0 °F 92% 30.42 in 2.0 mi NE 3.5 mph - 0.00 in Snow Light Snow
1:07 AM 30.0 °F 23.2 °F 28.0 °F 92% 30.41 in 4.0 mi NE 6.9 mph - 0.00 in Snow Light Snow
1:43 AM 30.0 °F - 28.0 °F 92% 30.43 in 7.0 mi Calm Calm - 0.00 in   Overcast
1:52 AM 30.0 °F - 28.0 °F 92% 30.44 in 7.0 mi Calm Calm - 0.00 in   Overcast
2:20 AM 30.0 °F - 27.0 °F 88% 30.43 in 8.0 mi Calm Calm - N/A   Overcast
2:52 AM 30.0 °F - 28.0 °F 92% 30.45 in 9.0 mi Calm Calm - N/A   Overcast
3:29 AM 30.0 °F 25.2 °F 28.0 °F 92% 30.43 in 9.0 mi ESE 4.6 mph - N/A   Overcast
3:39 AM 30.0 °F 25.2 °F 27.0 °F 88% 30.42 in 9.0 mi ESE 4.6 mph - N/A   Overcast
3:52 AM 30.0 °F 25.2 °F 28.0 °F 92% 30.43 in 8.0 mi ESE 4.6 mph - N/A   Overcast
4:03 AM 30.0 °F - 28.0 °F 92% 30.43 in 8.0 mi Calm Calm - N/A   Overcast
4:52 AM 30.0 °F 25.2 °F 28.0 °F 92% 30.43 in 8.0 mi ESE 4.6 mph - N/A   Overcast
5:52 AM 30.0 °F 25.2 °F 28.0 °F 92% 30.42 in 8.0 mi ESE 4.6 mph - 0.00 in   Overcast
6:52 AM 30.9 °F 23.5 °F 28.0 °F 89% 30.41 in 10.0 mi ESE 8.1 mph - N/A   Overcast
7:52 AM 30.9 °F 22.8 °F 28.0 °F 89% 30.39 in 8.0 mi ESE 9.2 mph - N/A   Overcast
8:52 AM 32.0 °F 23.6 °F 27.0 °F 82% 30.38 in 10.0 mi SE 10.4 mph - N/A   Overcast
9:48 AM 33.8 °F 27.7 °F 26.6 °F 75% 30.37 in 10.0 mi South 6.9 mph - 0.03 in Rain Light Rain
9:52 AM 33.1 °F 26.9 °F 26.1 °F 75% 30.39 in 10.0 mi South 6.9 mph - 0.03 in Rain Light Rain
10:52 AM 34.0 °F 27.2 °F 26.1 °F 73% 30.38 in 10.0 mi South 8.1 mph - 0.00 in   Overcast
11:52 AM 35.1 °F 27.4 °F 26.1 °F 70% 30.32 in 10.0 mi South 10.4 mph - 0.00 in   Overcast
12:52 PM 34.0 °F 24.6 °F 27.0 °F 75% 30.29 in 10.0 mi South 13.8 mph - 0.00 in   Overcast
1:52 PM 34.0 °F 23.8 °F 28.0 °F 79% 30.27 in 10.0 mi South 16.1 mph - N/A   Overcast
2:30 PM 34.0 °F 25.5 °F 28.9 °F 82% 30.26 in 9.0 mi South 11.5 mph - N/A   Overcast
2:52 PM 34.0 °F 26.6 °F 28.9 °F 82% 30.27 in 8.0 mi South 9.2 mph - 0.00 in Rain Light Rain
3:52 PM 33.1 °F 27.7 °F 30.0 °F 89% 30.28 in 5.0 mi South 5.8 mph - 0.00 in   Overcast
5:52 PM 33.1 °F 28.7 °F 30.9 °F 92% 30.27 in 2.5 mi SSE 4.6 mph - N/A   Overcast
6:03 PM 33.1 °F 27.7 °F 30.9 °F 92% 30.26 in 3.0 mi SE 5.8 mph - N/A   Overcast
6:15 PM 33.1 °F 30.0 °F 30.9 °F 92% 30.26 in 2.5 mi SE 3.5 mph - N/A   Overcast
6:24 PM 33.1 °F 28.7 °F 30.9 °F 92% 30.26 in 3.0 mi SE 4.6 mph - N/A   Overcast
6:52 PM 33.1 °F 30.0 °F 30.9 °F 92% 30.27 in 3.0 mi ESE 3.5 mph - N/A   Overcast
7:28 PM 33.1 °F - 30.9 °F 92% 30.25 in 4.0 mi Calm Calm - N/A   Overcast
7:52 PM 33.1 °F 28.7 °F 30.9 °F 92% 30.27 in 5.0 mi SE 4.6 mph - N/A   Overcast
8:52 PM 33.1 °F 30.0 °F 30.9 °F 92% 30.26 in 6.0 mi SE 3.5 mph - N/A   Overcast
9:52 PM 33.1 °F 28.7 °F 30.9 °F 92% 30.25 in 7.0 mi SE 4.6 mph - N/A   Overcast
10:30 PM 33.1 °F 28.7 °F 30.9 °F 92% 30.22 in 7.0 mi SE 4.6 mph - N/A   Overcast
10:45 PM 33.1 °F 28.7 °F 30.9 °F 92% 30.22 in 8.0 mi SE 4.6 mph - N/A   Overcast
10:52 PM 34.0 °F 29.8 °F 30.9 °F 89% 30.22 in 9.0 mi SE 4.6 mph - N/A   Overcast
11:52 PM 34.0 °F 28.8 °F 30.9 °F 89% 30.21 in 10.0 mi SSE 5.8 mph - N/A   Overcast